Simultaneous Nadir Overpasses (SNOs) Predictions

Prediction of SNOs between GOES-16 and AQUA Satellite Orbit:

Table of predicted SNOs for the next 14.0 days since TLE Epoch: 4/27/2018
Index Date Time (GOES-16) GOES-16 Lat,Lon AQUA Lat,Lon Distance(km) Time Diff (sec)
1 04/29/2018 06:39:01 0.00, -75.20 0.02, -75.37 19.39 80
2 05/01/2018 06:24:07 -0.00, -75.21 -0.57, -72.40 319.02 80
3 05/01/2018 18:45:30 0.00, -75.21 -0.49, -77.60 271.00 80
4 05/03/2018 18:35:56 0.00, -75.23 0.10, -74.63 68.01 80
5 05/05/2018 18:23:43 -0.01, -75.25 0.76, -71.67 407.66 80
6 05/06/2018 06:44:58 0.02, -75.26 0.35, -76.82 177.10 80
7 05/08/2018 06:30:04 0.02, -75.29 -0.26, -73.85 163.22 80
8 05/08/2018 18:51:28 -0.03, -75.29 -0.81, -79.05 426.78 80
9 05/10/2018 18:39:14 -0.03, -75.33 -0.20, -76.08 85.81 80




NCC Satellite Simultaneous Nadir Overpasses (SNOs) Prediction Service
